Wind_Speed
18 17 16 15 14 13 13 12 11 11 10 9 9 8 8 8 9 9 10 10 11 12 12 13 14 15 15 16 16 16 16 17 17 18 18 19 19 19 19 20 20 21 21
18 17 16 15 14 13 13 13 12 11 11 11 10 10 10 10 10 10 11 11 11 12 13 14 14 15 15 15 15 16 17 17 18 19 19 20 20 20 20 21 21 21 22
20 18 17 16 15 14 14 13 12 12 12 11 11 11 11 11 11 11 11 12 12 13 13 14 15 15 15 16 17 18 18 19 20 20 20 20 20 21 21 21 22 22 23
20 19 18 17 16 15 14 14 13 13 12 12 12 12 12 11 11 12 12 13 13 14 14 15 15 16 17 18 19 19 20 20 20 20 20 20 21 21 21 22 23 23 24
20 20 19 18 17 15 15 14 13 13 13 13 12 12 12 12 12 12 13 13 14 14 15 15 16 17 18 19 20 20 21 21 21 21 21 22 22 22 23 23 24 25 25
20 20 19 18 17 16 15 14 14 13 13 12 12 12 12 12 13 14 14 14 15 15 16 16 17 18 20 20 21 21 21 22 22 23 23 23 24 24 25 25 26 26 27
21 20 19 18 17 17 16 15 14 13 13 13 13 13 13 14 14 15 15 15 16 16 17 18 19 19 20 21 21 22 23 23 24 24 24 25 25 26 26 27 27 28 28
20 20 19 18 18 17 16 15 15 14 14 14 14 14 14 15 15 15 16 16 17 17 18 19 20 20 21 22 22 23 24 24 25 25 26 26 27 27 28 28 29 29 30
19 19 19 18 18 17 17 16 16 15 15 15 15 15 15 15 15 16 16 17 17 18 19 20 20 21 22 23 24 24 25 26 26 26 27 28 28 29 29 30 30 31 31
18 18 18 18 18 18 17 17 17 16 16 16 16 16 16 16 16 16 17 18 18 19 20 21 21 22 23 24 25 26 26 27 27 28 29 29 30 30 31 32 32 32 32
18 18 18 18 18 18 18 17 17 17 16 17 17 17 17 17 17 17 18 19 19 20 21 22 23 24 25 26 26 27 28 28 29 30 30 31 31 32 33 33 33 34 34
19 18 18 18 18 18 18 17 17 17 17 17 17 17 18 18 18 19 19 20 21 22 23 24 25 26 27 27 28 28 29 30 31 31 32 32 33 33 34 34 34 35 35
20 20 19 19 19 19 18 18 18 18 18 18 18 18 19 19 19 20 20 21 22 23 24 25 26 27 28 28 29 30 30 31 32 33 33 34 34 35 35 35 36 36 37
22 21 21 20 20 20 19 19 19 19 19 19 19 19 19 20 21 21 22 23 24 25 26 27 28 29 29 30 31 31 32 33 33 34 34 35 36 36 36 37 37 37 38
23 23 22 21 21 21 21 21 20 20 20 20 20 21 21 21 22 23 24 26 27 28 28 29 30 30 31 32 32 33 34 34 35 35 36 36 36 37 37 38 38 38 39
25 25 24 24 23 23 22 22 22 22 21 21 22 22 23 23 24 25 26 28 29 30 30 31 32 33 33 34 34 35 35 35 36 36 37 37 38 38 38 39 39 39 40
27 26 26 26 25 25 24 24 24 23 23 23 24 24 25 26 27 28 29 30 31 32 33 34 34 35 35 36 36 36 37 37 37 38 38 39 39 39 40 40 40 40 41
28 28 28 27 27 27 26 26 26 25 25 26 26 27 28 29 29 30 31 32 34 34 35 35 36 36 37 37 37 38 38 39 39 39 40 40 40 40 40 40 40 40 41
30 30 29 29 28 28 29 28 28 28 28 29 29 30 31 31 32 33 34 35 35 36 37 37 37 38 38 38 39 39 39 40 40 40 41 41 41 41 41 41 40 41 41
33 32 31 30 30 30 30 30 30 30 31 31 32 33 33 34 35 35 36 37 37 38 38 38 39 39 40 40 40 40 40 40 41 41 41 41 41 41 41 41 41 41 41
35 34 33 32 32 32 32 32 32 33 34 34 34 35 36 37 37 38 38 39 39 39 39 39 39 40 40 40 40 41 41 41 41 41 42 41 41 41 42 42 42 42 42
37 36 35 34 35 34 34 34 35 36 36 36 36 37 38 39 39 40 40 39 39 39 39 40 40 40 41 41 41 41 41 41 42 42 42 42 42 42 42 42 42 43 43
39 38 37 37 37 36 36 37 37 37 37 37 38 39 40 40 40 40 40 40 40 40 40 40 41 41 41 41 41 41 41 41 42 42 42 42 42 43 42 42 43 43 42
40 40 39 38 38 38 39 39 39 38 38 39 40 41 41 41 40 40 40 40 40 41 41 41 41 41 41 41 41 41 41 42 42 41 42 42 42 43 43 43 43 42 42
42 41 41 40 40 39 39 39 40 39 40 40 41 41 41 41 41 41 41 41 41 41 41 40 40 40 40 40 41 41 41 42 42 41 41 42 43 43 43 43 43 43 43
42 42 42 42 41 40 40 40 40 40 40 40 40 41 41 40 40 41 41 41 40 40 40 40 40 40 40 41 41 41 42 41 41 41 42 42 43 43 43 43 44 44 44
Wind_Direction
225 223 223 222 222 221 222 225 227 232 236 239 244 252 261 269 278 284 289 292 295 297 298 299 301 302 302 302 302 303 303 303 303 303 302 301 300 299 298 297 295 294 294
224 223 222 222 222 222 224 228 231 236 241 246 252 258 266 273 280 285 290 293 294 296 297 299 302 303 303 302 303 303 303 303 303 302 302 301 299 299 298 298 296 295 294
224 222 222 222 224 225 228 231 235 240 245 251 257 263 269 275 280 285 289 292 294 297 298 300 300 301 301 302 302 303 302 302 302 302 301 299 298 297 297 297 297 296 294
223 222 222 223 224 226 229 233 237 243 248 253 260 266 271 275 280 284 288 292 295 296 298 299 300 300 300 301 302 302 302 302 302 302 301 299 298 297 296 296 295 294 294
224 224 224 224 224 227 231 235 241 247 251 255 260 265 270 275 280 284 289 292 294 296 297 299 300 301 301 302 301 301 302 302 302 301 300 298 297 296 295 294 293 293 292
225 225 225 224 225 228 232 236 241 246 250 255 259 264 270 276 281 286 289 291 293 295 296 297 299 300 300 300 300 300 300 299 299 299 298 297 296 295 294 294 293 292 292
225 226 226 226 228 230 234 238 242 246 250 256 261 265 271 278 282 286 289 290 292 293 294 297 298 300 300 300 300 300 299 298 297 297 297 296 294 293 293 293 292 292 291
225 226 226 227 228 231 234 238 241 246 252 257 262 267 274 278 282 285 288 290 291 292 294 296 298 299 300 300 299 299 298 297 296 295 295 295 294 293 293 293 292 292 291
223 224 226 227 229 231 235 239 243 248 252 256 261 267 273 278 281 284 287 289 290 292 294 296 298 299 300 300 300 299 298 297 296 295 295 295 294 293 293 292 292 291 291
221 223 226 228 230 233 237 241 244 248 252 257 262 267 272 276 280 283 286 288 290 293 294 296 297 299 299 300 300 300 299 298 296 295 295 295 294 294 293 292 292 291 291
221 223 227 230 232 234 238 242 245 248 253 258 264 268 272 276 280 284 286 288 290 292 294 295 297 298 298 299 300 300 299 298 297 296 296 295 294 294 293 292 291 291 290
223 224 227 230 233 235 238 241 245 250 255 261 266 270 273 277 281 284 286 288 290 293 294 296 297 297 297 298 299 299 299 298 297 297 296 295 294 294 293 292 291 291 290
226 227 229 232 235 237 239 242 247 253 259 263 267 271 274 277 280 283 286 289 291 293 294 295 296 297 298 298 298 299 299 298 298 297 297 296 295 294 293 292 292 291 291
230 232 233 236 238 239 242 246 251 256 260 265 268 271 274 277 280 283 287 289 291 292 294 294 295 296 297 298 298 299 299 298 298 297 297 296 296 295 294 293 292 292 292
234 235 237 239 241 243 247 250 254 257 260 264 268 272 275 278 281 284 287 289 290 292 293 294 294 295 296 297 298 299 299 298 298 298 297 297 296 295 295 294 293 293 293
237 238 240 242 243 246 249 253 255 258 262 265 269 272 275 278 282 285 287 289 291 292 293 293 294 294 295 296 297 298 298 298 298 297 297 296 296 296 295 295 294 293 292
237 239 241 243 245 246 250 254 257 260 263 267 270 273 276 279 282 285 287 289 290 291 291 292 293 293 295 295 296 296 297 297 297 297 297 296 296 296 296 295 295 294 293
238 240 242 244 246 248 251 254 257 261 265 269 272 274 277 280 282 285 286 288 290 290 291 292 292 293 294 294 295 296 297 297 296 296 296 296 296 296 296 296 295 294 294
239 241 243 245 248 250 253 256 259 263 267 270 272 274 277 280 282 284 286 287 288 289 290 291 292 292 293 293 294 295 296 296 296 296 296 297 297 297 297 297 296 295 295
241 243 245 247 249 252 254 257 260 263 266 269 272 274 277 279 282 284 285 286 287 288 289 290 291 291 292 292 293 294 295 296 296 296 297 297 297 297 298 297 296 296 296
243 244 246 249 251 253 256 258 261 263 266 269 273 275 277 279 281 282 283 285 286 287 288 289 290 291 291 292 293 294 294 295 296 296 297 297 297 297 298 297 297 297 297
245 246 248 250 252 255 257 258 261 263 267 270 273 275 276 278 280 281 283 285 286 287 288 289 290 291 292 292 293 293 294 295 296 297 297 298 298 298 298 298 297 298 298
246 248 250 251 253 255 257 259 262 265 267 270 273 274 276 278 279 281 283 284 285 286 288 289 290 291 292 292 293 294 294 295 296 297 298 298 298 299 299 299 299 300 299
247 248 250 252 253 255 258 260 263 265 267 269 271 273 276 278 279 280 282 284 285 286 287 288 290 290 291 292 293 294 294 296 297 297 297 298 298 299 300 299 300 300 300
247 249 250 252 254 256 258 260 262 265 267 268 270 272 274 276 277 279 282 283 285 286 287 289 289 290 291 292 293 294 295 296 296 296 297 299 300 300 300 300 301 301 301
247 248 250 252 254 256 258 260 262 264 265 267 269 271 273 275 277 279 281 283 284 285 287 288 289 289 290 291 293 294 295 296 296 297 298 300 301 301 301 301 301 302 301
Height
5860 5862 5864 5865 5867 5868 5869 5871 5872 5873 5873 5874 5875 5875 5875 5875 5876 5876 5876 5876 5876 5876 5876 5876 5875 5875 5874 5873 5873 5873 5872 5871 5871 5870 5869 5868 5867 5867 5866 5865 5864 5863 5862
5858 5860 5861 5863 5865 5866 5867 5869 5870 5871 5872 5872 5873 5873 5874 5874 5874 5874 5874 5874 5874 5874 5874 5874 5873 5872 5872 5871 5871 5870 5870 5869 5868 5867 5866 5865 5864 5863 5862 5861 5861 5859 5858
5855 5857 5859 5861 5862 5864 5865 5867 5868 5869 5870 5870 5871 5871 5872 5872 5872 5872 5872 5872 5872 5872 5872 5871 5871 5870 5869 5869 5868 5868 5867 5866 5865 5864 5863 5862 5861 5860 5859 5858 5857 5856 5855
5852 5854 5856 5858 5860 5862 5863 5864 5866 5867 5867 5868 5869 5869 5869 5870 5870 5870 5870 5870 5870 5870 5870 5869 5868 5868 5867 5866 5865 5864 5864 5863 5862 5861 5859 5858 5857 5856 5855 5854 5853 5852 5851
5849 5852 5854 5856 5858 5859 5861 5862 5863 5864 5865 5866 5866 5867 5867 5867 5868 5868 5868 5868 5868 5868 5867 5867 5866 5865 5864 5863 5862 5861 5860 5859 5858 5857 5856 5855 5854 5852 5851 5850 5849 5847 5846
5847 5849 5851 5853 5855 5857 5858 5860 5861 5862 5862 5863 5864 5864 5865 5865 5865 5865 5865 5865 5865 5865 5864 5864 5863 5862 5861 5860 5859 5858 5857 5856 5855 5853 5852 5851 5850 5848 5847 5846 5844 5843 5841
5844 5846 5848 5850 5852 5854 5855 5857 5858 5859 5860 5861 5861 5862 5862 5862 5863 5863 5863 5863 5862 5862 5862 5861 5860 5859 5858 5857 5856 5855 5854 5852 5851 5850 5848 5847 5845 5844 5842 5841 5839 5838 5836
5841 5843 5845 5847 5849 5851 5852 5854 5855 5856 5857 5858 5858 5859 5859 5860 5860 5860 5860 5860 5859 5859 5858 5858 5857 5856 5855 5853 5852 5851 5850 5848 5847 5845 5844 5842 5841 5839 5837 5836 5834 5833 5831
5838 5840 5842 5844 5846 5848 5849 5851 5852 5853 5854 5855 5856 5856 5856 5857 5857 5857 5857 5856 5856 5855 5855 5854 5853 5852 5851 5850 5848 5847 5845 5844 5842 5841 5839 5837 5836 5834 5832 5830 5829 5827 5825
5835 5837 5839 5841 5843 5845 5847 5848 5849 5850 5851 5852 5853 5853 5853 5854 5854 5853 5853 5853 5852 5852 5851 5850 5849 5848 5847 5845 5844 5842 5841 5839 5837 5836 5834 5832 5830 5828 5826 5825 5823 5821 5819
5832 5834 5836 5838 5840 5842 5843 5845 5846 5847 5848 5849 5849 5850 5850 5850 5850 5850 5850 5849 5848 5848 5847 5846 5845 5844 5842 5841 5839 5837 5835 5834 5832 5830 5828 5826 5824 5822 5820 5818 5816 5814 5813
5829 5831 5833 5835 5837 5838 5840 5841 5842 5843 5844 5845 5845 5846 5846 5846 5846 5846 5845 5845 5844 5843 5843 5842 5840 5839 5837 5836 5834 5832 5830 5828 5826 5824 5822 5820 5818 5816 5814 5812 5810 5808 5806
5825 5828 5830 5831 5833 5835 5836 5837 5839 5840 5840 5841 5842 5842 5842 5842 5842 5842 5841 5840 5840 5839 5838 5837 5835 5834 5832 5830 5829 5827 5825 5823 5820 5818 5816 5814 5812 5810 5807 5805 5803 5801 5799
5822 5824 5826 5828 5829 5831 5832 5833 5834 5835 5836 5837 5837 5837 5838 5838 5838 5837 5837 5836 5835 5834 5833 5831 5830 5828 5826 5824 5823 5821 5818 5816 5814 5812 5809 5807 5805 5803 5800 5798 5795 5793 5791
5817 5819 5821 5823 5825 5826 5828 5829 5830 5831 5832 5832 5832 5833 5833 5833 5833 5832 5832 5830 5829 5828 5827 5825 5824 5822 5820 5818 5816 5814 5812 5810 5807 5805 5802 5800 5798 5795 5793 5790 5788 5786 5783
5812 5814 5816 5818 5820 5822 5823 5824 5825 5826 5827 5827 5827 5828 5828 5828 5827 5827 5826 5825 5824 5822 5821 5819 5817 5816 5814 5812 5809 5807 5805 5803 5800 5798 5795 5793 5790 5788 5785 5783 5780 5778 5775
5806 5808 5811 5813 5815 5816 5818 5819 5820 5821 5821 5822 5822 5822 5822 5822 5822 5821 5820 5819 5817 5816 5814 5812 5811 5809 5807 5805 5803 5800 5798 5795 5793 5791 5788 5786 5783 5780 5778 5775 5772 5770 5767
5800 5802 5805 5807 5809 5810 5812 5813 5814 5815 5816 5816 5816 5816 5816 5816 5815 5814 5813 5812 5811 5809 5807 5805 5804 5802 5800 5798 5795 5793 5791 5788 5785 5783 5780 5778 5775 5772 5770 5767 5764 5761 5758
5793 5796 5798 5801 5803 5804 5805 5807 5808 5809 5809 5810 5810 5810 5809 5809 5808 5807 5806 5805 5804 5802 5800 5798 5796 5794 5792 5790 5788 5785 5783 5780 5778 5775 5772 5770 5767 5764 5761 5758 5756 5753 5750
5787 5789 5792 5794 5796 5797 5799 5800 5801 5802 5802 5803 5803 5803 5802 5802 5801 5800 5799 5798 5796 5794 5792 5790 5788 5786 5784 5782 5780 5778 5775 5772 5770 5767 5764 5761 5759 5756 5753 5750 5747 5744 5741
5780 5782 5785 5787 5789 5790 5792 5793 5794 5795 5795 5795 5796 5795 5795 5794 5793 5792 5791 5790 5788 5786 5785 5783 5781 5779 5776 5774 5772 5770 5767 5764 5761 5759 5756 5753 5750 5747 5744 5741 5738 5735 5732
5772 5775 5778 5780 5781 5783 5785 5786 5787 5787 5788 5788 5788 5788 5787 5786 5785 5784 5783 5782 5780 5778 5777 5775 5773 5770 5768 5766 5764 5762 5759 5757 5753 5750 5748 5745 5742 5739 5736 5732 5729 5726 5723
5763 5767 5769 5771 5773 5775 5776 5777 5778 5779 5780 5780 5780 5779 5778 5777 5777 5776 5775 5773 5772 5770 5768 5766 5765 5762 5760 5758 5756 5754 5751 5748 5745 5742 5739 5736 5733 5730 5727 5723 5720 5717 5713
5754 5757 5760 5762 5764 5766 5767 5769 5770 5771 5772 5772 5771 5770 5770 5769 5768 5767 5766 5765 5763 5762 5760 5758 5756 5754 5752 5750 5747 5745 5742 5739 5737 5734 5731 5728 5724 5721 5718 5714 5711 5708 5704
5744 5747 5751 5753 5755 5757 5759 5760 5761 5762 5763 5763 5762 5761 5761 5760 5760 5759 5757 5756 5755 5753 5751 5750 5748 5746 5744 5741 5739 5736 5733 5731 5728 5725 5723 5719 5716 5712 5708 5705 5702 5698 5694
5734 5737 5741 5743 5746 5748 5750 5751 5752 5753 5753 5753 5753 5752 5752 5752 5751 5750 5749 5748 5746 5745 5743 5741 5739 5737 5735 5733 5730 5728 5725 5722 5720 5717 5714 5711 5707 5703 5699 5695 5692 5688 5684